Terminal Aerodrome Forecast
Issued by NWS Birmingham, AL

Home | Current Version | Previous Version | Text Only | Print | Product List | Glossary On
Versions: 1 2 3 4 5 6 7 8 9 10 11 12
000
FTUS44 KBMX 290520
TAFBHM
TAF
KBHM 290520Z 2906/3006 14003KT P6SM SCT200
     FM291500 15008KT P6SM VCTS BKN020 BKN040CB=

USA.gov is the U.S. government's official web portal to all federal, state and local government web resources and services.